GW1000 Weather Reports


time (UTC)temp
F
wind
direction
speed
knots
gust
knots
rain 1hr
in
rain 24hr
in
rain mn
in
humidity
%
barometer
mb
20260906131317 86 346 7.0 9.6 0.00 0.00 0.00 59 1007.9
20260906130813 86 267 7.8 11.3 0.00 0.00 0.00 61 1007.9
20260906130313 86 254 4.3 9.6 0.00 0.00 0.00 59 1008.0
20260906125811 87 341 3.5 7.8 0.00 0.00 0.00 60 1008.0
20260906125306 86 281 7.0 11.3 0.00 0.00 0.00 59 1008.0
20260906124758 87 301 7.0 7.8 0.00 0.00 0.00 57 1007.9
20260906124255 87 325 9.6 11.3 0.00 0.00 0.00 55 1008.0
20260906123753 87 333 7.8 9.6 0.00 0.00 0.00 57 1007.9
20260906123248 86 247 2.6 7.8 0.00 0.00 0.00 59 1008.0
20260906122748 86 249 9.6 13.0 0.00 0.00 0.00 55 1007.9
20260906122243 86 352 11.3 14.8 0.00 0.00 0.00 56 1008.0
20260906121740 87 224 5.2 9.6 0.00 0.00 0.00 58 1008.2
20260906121236 86 351 6.1 13.0 0.00 0.00 0.00 59 1007.9
20260906120731 86 266 7.8 9.6 0.00 0.00 0.00 60 1007.9
20260906120228 87 352 5.2 7.8 0.00 0.00 0.00 60 1008.1
20260906115723 87 277 10.4 12.2 0.00 0.00 0.00 58 1008.2
20260906115218 86 337 12.2 13.0 0.00 0.00 0.00 58 1008.1
20260906114717 87 285 5.2 11.3 0.00 0.00 0.00 59 1008.2
20260906114212 85 309 7.8 11.3 0.00 0.00 0.00 59 1008.2
20260906113708 85 333 7.8 12.2 0.00 0.00 0.00 63 1008.2
20260906113207 86 279 9.6 15.6 0.00 0.00 0.00 62 1008.4
20260906112706 86 287 7.8 9.6 0.00 0.00 0.00 63 1008.4
20260906112203 86 346 7.8 14.8 0.00 0.00 0.00 62 1008.2
20260906111703 87 348 10.4 15.6 0.00 0.00 0.00 59 1008.3
20260906111157 86 207 7.8 11.3 0.00 0.00 0.00 61 1008.5
20260906110652 87 310 7.0 9.6 0.00 0.00 0.00 61 1008.4
20260906110142 86 241 6.1 7.8 0.00 0.00 0.00 61 1008.3
20260906105636 86 286 7.8 13.0 0.00 0.00 0.00 63 1008.2
20260906105133 86 249 8.7 11.3 0.00 0.00 0.00 60 1008.4
20260906104631 86 281 7.0 8.7 0.00 0.00 0.00 61 1008.4
20260906104130 86 349 9.6 13.9 0.00 0.00 0.00 59 1008.2
20260906103629 87 347 10.4 14.8 0.00 0.00 0.00 58 1008.2
20260906103124 86 358 5.2 13.0 0.00 0.00 0.00 58 1008.3
20260906102619 88 283 7.8 13.9 0.00 0.00 0.00 57 1008.3
20260906102114 88 286 7.0 15.6 0.00 0.00 0.00 54 1008.3
20260906101614 89 284 7.8 13.0 0.00 0.00 0.00 53 1008.3
20260906101114 88 277 10.4 13.0 0.00 0.00 0.00 50 1008.2
20260906100610 89 277 5.2 7.0 0.00 0.00 0.00 50 1008.1
20260906100110 89 339 9.6 13.0 0.00 0.00 0.00 50 1008.2
20260906095610 89 303 6.1 11.3 0.00 0.00 0.00 51 1008.2
20260906095105 88 235 10.4 12.2 0.00 0.00 0.00 52 1007.9
20260906094604 89 313 6.1 13.9 0.00 0.00 0.00 54 1008.0
20260906094100 89 345 6.1 11.3 0.00 0.00 0.00 51 1008.2
20260906093556 89 338 7.8 12.2 0.00 0.00 0.00 46 1007.9
20260906093051 89 299 3.5 7.0 0.00 0.00 0.00 49 1007.9
20260906092546 88 283 1.7 7.0 0.00 0.00 0.00 51 1008.0
20260906092041 88 266 1.7 7.8 0.00 0.00 0.00 50 1008.2
20260906091536 89 288 6.1 11.3 0.00 0.00 0.00 47 1008.5
20260906091033 89 2 4.3 7.8 0.00 0.00 0.00 45 1008.1
20260906090527 88 351 5.2 7.0 0.00 0.00 0.00 49 1008.2
20260906090022 88 257 7.8 9.6 0.00 0.00 0.00 51 1008.1
20260906085521 88 236 7.8 8.7 0.00 0.00 0.00 52 1008.2
20260906085022 88 240 7.8 9.6 0.00 0.00 0.00 48 1008.0
20260906084521 87 248 2.6 5.2 0.00 0.00 0.00 53 1008.1
20260906084020 88 192 4.3 7.0 0.00 0.00 0.00 56 1008.1
20260906083516 87 236 6.1 7.0 0.00 0.00 0.00 55 1008.3
20260906083015 87 277 4.3 6.1 0.00 0.00 0.00 57 1008.3
20260906082510 88 172 1.7 2.6 0.00 0.00 0.00 56 1008.4
20260906082006 87 186 3.5 4.3 0.00 0.00 0.00 57 1008.4
20260906081502 86 266 3.5 4.3 0.00 0.00 0.00 59 1008.6
20260906080957 85 254 6.1 8.7 0.00 0.00 0.00 56 1008.7
20260906080454 85 213 4.3 6.1 0.00 0.00 0.00 60 1008.7
20260906075949 85 248 1.7 6.1 0.00 0.00 0.00 61 1008.7
20260906075444 85 237 2.6 5.2 0.00 0.00 0.00 62 1008.8
20260906074939 84 233 5.2 8.7 0.00 0.00 0.00 63 1009.1
20260906074438 85 239 7.8 9.6 0.00 0.00 0.00 62 1008.9
20260906073937 85 304 4.3 6.1 0.00 0.00 0.00 61 1008.8
20260906073432 84 257 2.6 5.2 0.00 0.00 0.00 62 1009.0
20260906072928 84 248 6.1 7.0 0.00 0.00 0.00 63 1009.0
20260906072418 85 228 4.3 7.0 0.00 0.00 0.00 64 1009.2
20260906071914 83 275 3.5 5.2 0.00 0.00 0.00 66 1009.3
20260906071409 84 244 4.3 9.6 0.00 0.00 0.00 66 1009.2
20260906070905 83 197 4.3 7.8 0.00 0.00 0.00 67 1009.1
20260906070400 82 249 5.2 7.0 0.00 0.00 0.00 67 1009.2
20260906065851 82 274 5.2 7.8 0.00 0.00 0.00 68 1009.2
20260906065350 83 276 3.5 7.0 0.00 0.00 0.00 69 1009.2
20260906064846 82 285 3.5 7.8 0.00 0.00 0.00 70 1009.2
20260906064337 83 189 5.2 6.1 0.00 0.00 0.00 70 1008.8
20260906063836 82 221 3.5 7.8 0.00 0.00 0.00 71 1009.1
20260906063332 82 234 2.6 6.1 0.00 0.00 0.00 71 1008.6
20260906062827 82 119 0.9 4.3 0.00 0.00 0.00 73 1008.9
20260906062326 81 252 3.5 6.1 0.00 0.00 0.00 73 1009.0
20260906061821 81 276 4.3 9.6 0.00 0.00 0.00 73 1009.0
20260906061312 81 239 2.6 5.2 0.00 0.00 0.00 75 1008.9
20260906060806 81 237 1.7 6.1 0.00 0.00 0.00 76 1008.9
20260906060304 80 240 7.0 8.7 0.00 0.00 0.00 76 1008.6
20260906055800 81 208 2.6 7.8 0.00 0.00 0.00 76 1008.7
20260906055255 80 288 5.2 7.8 0.00 0.00 0.00 77 1008.6
20260906054750 80 185 2.6 8.7 0.00 0.00 0.00 77 1008.7
20260906054246 80 246 3.5 7.8 0.00 0.00 0.00 78 1008.6
20260906053742 80 236 4.3 7.8 0.00 0.00 0.00 78 1008.6
20260906053238 80 239 5.2 7.8 0.00 0.00 0.00 78 1008.6
20260906052732 80 228 2.6 5.2 0.00 0.00 0.00 78 1008.6
20260906052228 79 242 3.5 7.0 0.00 0.00 0.00 79 1008.8
20260906051725 79 195 2.6 7.0 0.00 0.00 0.00 79 1008.7
20260906051224 79 250 3.5 6.1 0.00 0.00 0.00 79 1008.4
20260906050715 79 218 1.7 5.2 0.00 0.00 0.00 80 1008.5
20260906050210 78 241 2.6 5.2 0.00 0.00 0.00 81 1008.5
20260906045708 78 208 1.7 2.6 0.00 0.00 0.00 82 1008.4
20260906045203 78 195 0.9 4.3 0.00 0.00 0.00 82 1008.6
20260906044659 78 215 1.7 4.3 0.00 0.00 0.00 83 1008.5
20260906044154 77 268 3.5 5.2 0.00 0.00 0.00 84 1008.6
20260906043650 77 256 2.6 4.3 0.00 0.00 0.00 84 1008.4
20260906043146 77 163 2.6 2.6 0.00 0.00 0.00 85 1008.9
20260906042645 76 118 0.0 1.7 0.00 0.00 0.00 85 1008.5
20260906042139 76 236 0.9 1.7 0.00 0.00 0.00 85 1008.7
20260906041635 76 193 4.3 5.2 0.00 0.00 0.00 86 1008.5
20260906041129 75 170 0.9 1.7 0.00 0.00 0.00 86 1008.5
20260906040625 74 78 0.0 0.0 0.00 0.00 0.00 87 1008.5
20260906040120 74 40 0.0 0.0 0.00 0.00 0.00 86 1008.6
20260906035615 74 61 0.0 0.9 0.00 0.00 0.00 86 1008.4
20260906035111 74 60 0.0 0.0 0.00 0.00 0.00 87 1008.5
20260906034606 73 75 0.0 0.0 0.00 0.00 0.00 87 1008.5
20260906034101 73 57 0.0 0.0 0.00 0.00 0.00 87 1008.4
20260906033556 73 32 0.0 0.0 0.00 0.00 0.00 87 1008.3
20260906033051 73 27 0.0 0.0 0.00 0.00 0.00 87 1008.3
20260906032548 73 22 0.0 0.0 0.00 0.00 0.00 86 1008.1
20260906032047 73 57 0.0 0.0 0.00 0.00 0.00 87 1008.0
20260906031543 73 39 0.0 0.0 0.00 0.00 0.00 87 1008.1
20260906031039 73 3 0.0 0.0 0.00 0.00 0.00 87 1008.1
20260906030538 73 13 0.0 0.0 0.00 0.00 0.00 86 1008.0
20260906030037 73 48 0.0 0.0 0.00 0.00 0.00 87 1008.3
20260906025532 72 34 0.0 0.0 0.00 0.00 0.00 87 1008.2
20260906025030 73 18 0.0 0.0 0.00 0.00 0.00 86 1008.0
20260906024525 73 31 0.0 0.0 0.00 0.00 0.00 87 1008.1
20260906024019 73 72 0.0 0.0 0.00 0.00 0.00 87 1008.0
20260906023515 73 348 0.0 0.0 0.00 0.00 0.00 86 1008.1
20260906023010 73 50 0.0 0.0 0.00 0.00 0.00 86 1008.0
20260906022506 73 31 0.0 0.0 0.00 0.00 0.00 86 1008.3
20260906022000 73 6 0.0 0.0 0.00 0.00 0.00 86 1008.0
20260906021455 73 60 0.0 0.0 0.00 0.00 0.00 86 1008.0
20260906020950 73 10 0.0 0.0 0.00 0.00 0.00 86 1007.9
20260906020444 73 25 0.0 0.0 0.00 0.00 0.00 86 1008.0
20260906015938 73 41 0.0 0.0 0.00 0.00 0.00 86 1008.0
20260906015432 73 41 0.0 0.0 0.00 0.00 0.00 86 1008.0
20260906014927 73 21 0.0 0.0 0.00 0.00 0.00 86 1008.0
20260906014426 73 81 2.6 2.6 0.00 0.00 0.00 86 1007.8
20260906013922 73 27 0.0 0.0 0.00 0.00 0.00 86 1007.8
20260906013417 73 50 0.0 0.0 0.00 0.00 0.00 86 1007.7
20260906012913 73 50 0.0 0.0 0.00 0.00 0.00 86 1007.7
20260906012408 73 47 0.0 0.0 0.00 0.00 0.00 86 1007.7
20260906011907 73 47 0.0 0.0 0.00 0.00 0.00 86 1007.7
20260906011402 73 40 0.0 0.0 0.00 0.00 0.00 86 1007.8
20260906010858 73 54 0.0 0.0 0.00 0.00 0.00 86 1007.8
20260906010353 73 19 0.0 0.0 0.00 0.00 0.00 85 1007.8
20260906005849 73 38 0.0 0.0 0.00 0.00 0.00 85 1007.9
20260906005348 73 46 0.0 0.0 0.00 0.00 0.00 85 1007.6
20260906004848 73 60 0.0 0.0 0.00 0.00 0.00 85 1007.7
20260906004347 74 38 0.0 0.0 0.00 0.00 0.00 85 1007.7
20260906003842 73 51 0.0 0.0 0.00 0.00 0.00 85 1007.9
20260906003337 74 24 0.0 0.0 0.00 0.00 0.00 85 1007.8
20260906002833 74 99 0.9 0.9 0.00 0.00 0.00 85 1007.7
20260906002332 74 43 0.0 0.9 0.00 0.00 0.00 85 1007.4
20260906001828 74 54 0.0 0.0 0.00 0.00 0.00 85 1007.5
20260906001323 74 68 0.0 1.7 0.00 0.00 0.00 85 1007.7
20260906000818 74 65 0.0 0.9 0.00 0.00 0.00 84 1007.8
20260906000313 74 113 1.7 1.7 0.00 0.00 0.00 84 1007.7
20260905235808 74 52 0.0 0.9 0.00 0.00 0.00 84 1007.9
20260905235308 74 70 0.9 0.9 0.00 0.00 0.00 84 1007.7
20260905234804 74 43 0.0 0.9 0.00 0.00 0.00 84 1007.6
20260905234259 74 36 0.0 0.0 0.00 0.00 0.00 84 1007.7
20260905233754 74 52 0.0 0.0 0.00 0.00 0.00 84 1007.6
20260905233254 75 50 0.0 0.0 0.00 0.00 0.00 84 1007.8
20260905232753 75 92 1.7 1.7 0.00 0.00 0.00 84 1007.7
20260905232249 75 110 0.0 0.9 0.00 0.00 0.00 84 1007.7
20260905231745 75 52 0.0 0.9 0.00 0.00 0.00 84 1007.8
20260905231240 75 68 0.0 0.9 0.00 0.00 0.00 84 1007.9
20260905230736 75 37 0.0 0.9 0.00 0.00 0.00 84 1008.1
20260905230234 75 103 0.9 0.9 0.00 0.00 0.00 84 1007.8
20260905225733 75 89 0.9 1.7 0.00 0.00 0.00 83 1008.0
20260905225228 75 61 0.0 1.7 0.00 0.00 0.00 83 1007.8
20260905224727 75 92 0.0 0.0 0.00 0.00 0.00 83 1008.0
20260905224223 75 40 0.0 0.0 0.00 0.00 0.00 83 1008.1
20260905223720 75 59 0.0 0.0 0.00 0.00 0.00 83 1008.0
20260905223216 75 47 0.0 0.0 0.00 0.00 0.00 83 1008.0
20260905222711 75 48 0.0 0.0 0.00 0.00 0.00 83 1008.0
20260905222210 75 52 0.0 0.0 0.00 0.00 0.00 83 1008.2
20260905221706 75 72 0.0 0.0 0.00 0.00 0.00 83 1008.0
20260905221203 76 45 0.0 0.0 0.00 0.00 0.00 82 1008.2
20260905220659 76 89 0.9 0.9 0.00 0.00 0.00 82 1008.3
20260905220155 76 78 0.0 0.9 0.00 0.00 0.00 82 1008.3
20260905215648 76 64 0.0 0.9 0.00 0.00 0.00 82 1008.4
20260905215144 76 63 0.0 0.9 0.00 0.00 0.00 82 1008.3
20260905214641 76 102 0.9 0.9 0.00 0.00 0.00 82 1008.3
20260905214141 76 35 0.0 0.0 0.00 0.00 0.00 82 1008.5
20260905213636 76 24 0.0 0.0 0.00 0.00 0.00 82 1008.4
20260905213131 76 55 0.0 1.7 0.00 0.00 0.00 82 1008.4
20260905212626 76 105 0.0 1.7 0.00 0.00 0.00 82 1008.5
20260905212126 76 63 0.0 1.7 0.00 0.00 0.00 82 1008.5
20260905211621 76 68 0.9 1.7 0.00 0.00 0.00 82 1008.4
20260905211116 77 52 0.0 0.9 0.00 0.00 0.00 81 1008.6
20260905210613 76 36 0.0 0.9 0.00 0.00 0.00 81 1008.7
20260905210108 77 45 0.0 0.9 0.00 0.00 0.00 81 1008.6
20260905205607 77 75 0.9 1.7 0.00 0.00 0.00 81 1008.6
20260905205106 77 43 0.0 0.0 0.00 0.00 0.00 81 1008.5
20260905204601 77 55 0.0 0.9 0.00 0.00 0.00 81 1008.7
20260905204056 77 49 0.0 0.9 0.00 0.00 0.00 80 1008.5
20260905203555 77 96 1.7 1.7 0.00 0.00 0.00 81 1008.6
20260905203051 77 40 0.0 0.9 0.00 0.00 0.00 80 1008.6
20260905202546 77 42 0.9 0.9 0.00 0.00 0.00 80 1008.6
20260905202042 77 35 0.0 0.9 0.00 0.00 0.00 80 1008.7
20260905201537 78 38 0.0 0.9 0.00 0.00 0.00 80 1008.6
20260905201036 78 123 0.0 0.9 0.00 0.00 0.00 80 1008.6
20260905200532 78 27 0.0 0.9 0.00 0.00 0.00 80 1008.8
20260905200032 78 211 0.9 0.9 0.00 0.00 0.00 80 1008.7
20260905195526 78 45 0.0 0.0 0.00 0.00 0.00 79 1008.7
20260905195021 78 44 0.0 0.0 0.00 0.00 0.00 79 1008.5
20260905194515 78 38 0.0 0.0 0.00 0.00 0.00 79 1008.7
20260905194010 79 149 0.0 0.9 0.00 0.00 0.00 79 1008.7
20260905193510 78 99 0.0 0.9 0.00 0.00 0.00 79 1008.6
20260905193005 78 59 0.0 0.0 0.00 0.00 0.00 79 1008.8
20260905192500 79 58 0.0 0.0 0.00 0.00 0.00 79 1008.8
20260905191956 79 73 0.0 0.9 0.00 0.00 0.00 79 1008.6
20260905191450 79 11 0.0 0.9 0.00 0.00 0.00 79 1008.9
20260905190949 79 6 0.0 0.9 0.00 0.00 0.00 78 1008.8
20260905190447 79 104 0.9 0.9 0.00 0.00 0.00 78 1008.6
20260905185946 79 131 0.9 0.9 0.00 0.00 0.00 78 1008.7
20260905185441 79 122 0.9 0.9 0.00 0.00 0.00 78 1008.9
20260905184939 79 78 0.0 0.0 0.00 0.00 0.00 78 1008.9
20260905184434 79 76 0.0 0.9 0.00 0.00 0.00 79 1008.7
20260905183933 79 110 0.0 0.9 0.00 0.00 0.00 78 1009.0
20260905183422 79 49 0.0 0.0 0.00 0.00 0.00 78 1009.0
20260905182918 79 37 0.0 0.0 0.00 0.00 0.00 79 1008.9
20260905182416 79 43 0.0 0.0 0.00 0.00 0.00 78 1008.8
20260905181912 79 43 0.0 0.0 0.00 0.00 0.00 78 1008.7
20260905181412 79 43 0.0 0.0 0.00 0.00 0.00 78 1008.9
20260905180912 79 44 0.0 0.0 0.00 0.00 0.00 78 1008.8
20260905180406 80 29 0.0 0.0 0.00 0.00 0.00 78 1008.9
20260905175901 80 30 0.0 0.0 0.00 0.00 0.00 78 1008.8
20260905175400 80 26 0.0 0.0 0.00 0.00 0.00 77 1009.0
20260905174855 80 23 0.0 0.9 0.00 0.00 0.00 77 1008.9
20260905174351 80 4 0.9 0.9 0.00 0.00 0.00 77 1009.0
20260905173847 80 8 0.9 0.9 0.00 0.00 0.00 77 1008.8
20260905173343 80 346 0.9 0.9 0.00 0.00 0.00 76 1008.7
20260905172838 80 305 0.9 1.7 0.00 0.00 0.00 76 1008.8
20260905172336 80 300 1.7 2.6 0.00 0.00 0.00 76 1008.7
20260905171832 80 6 0.9 2.6 0.00 0.00 0.00 76 1008.6
20260905171329 80 317 1.7 1.7 0.00 0.00 0.00 76 1008.6
20260905170825 80 277 3.5 4.3 0.00 0.00 0.00 76 1008.5
20260905170320 80 322 1.7 2.6 0.00 0.00 0.00 76 1008.4
20260905165819 80 326 3.5 4.3 0.00 0.00 0.00 76 1008.5
20260905165310 81 335 1.7 2.6 0.00 0.00 0.00 76 1008.4
20260905164809 81 329 1.7 2.6 0.00 0.00 0.00 75 1008.1
20260905164304 81 293 2.6 2.6 0.00 0.00 0.00 75 1008.1
20260905163759 81 341 2.6 4.3 0.00 0.00 0.00 75 1008.0
20260905163256 81 260 1.7 1.7 0.00 0.00 0.00 74 1007.9
20260905162751 81 20 1.7 1.7 0.00 0.00 0.00 74 1008.0
20260905162250 81 316 1.7 2.6 0.00 0.00 0.00 74 1008.0
20260905161745 81 334 3.5 5.2 0.00 0.00 0.00 73 1008.0
20260905161244 82 264 2.6 5.2 0.00 0.00 0.00 73 1008.0
20260905160743 82 342 3.5 5.2 0.00 0.00 0.00 73 1008.1
20260905160238 82 332 2.6 2.6 0.00 0.00 0.00 72 1008.0
20260905155732 82 283 4.3 5.2 0.00 0.00 0.00 72 1008.0
20260905155230 82 291 4.3 5.2 0.00 0.00 0.00 72 1007.9
20260905154720 82 344 2.6 5.2 0.00 0.00 0.00 72 1007.9
20260905154215 82 343 3.5 6.1 0.00 0.00 0.00 71 1007.9
20260905153711 83 305 5.2 6.1 0.00 0.00 0.00 71 1008.0
20260905153207 83 337 6.1 7.0 0.00 0.00 0.00 70 1008.0
20260905152701 83 300 3.5 6.1 0.00 0.00 0.00 70 1007.7
20260905152156 83 0 4.3 6.1 0.00 0.00 0.00 70 1008.0
20260905151656 84 338 5.2 7.8 0.00 0.00 0.00 69 1007.9
20260905151151 84 14 2.6 7.0 0.00 0.00 0.00 69 1007.6
20260905150652 84 355 3.5 6.1 0.00 0.00 0.00 69 1007.9
20260905150151 84 359 6.1 7.0 0.00 0.00 0.00 68 1007.7
20260905145649 85 334 7.8 12.2 0.00 0.00 0.00 68 1007.7
20260905145149 84 337 4.3 6.1 0.00 0.00 0.00 68 1007.7
20260905144643 84 293 6.1 8.7 0.00 0.00 0.00 68 1007.7
20260905144142 84 257 5.2 7.8 0.00 0.00 0.00 68 1007.7
20260905143637 85 358 7.0 11.3 0.00 0.00 0.00 67 1007.5
20260905143137 85 335 7.8 8.7 0.00 0.00 0.00 66 1007.6
20260905142636 85 300 1.7 9.6 0.00 0.00 0.00 66 1007.4
20260905142130 85 264 7.8 8.7 0.00 0.00 0.00 66 1007.5
20260905141625 85 9 4.3 9.6 0.00 0.00 0.00 66 1007.4
20260905141121 86 342 4.3 7.0 0.00 0.00 0.00 65 1007.6
20260905140616 85 287 6.1 9.6 0.00 0.00 0.00 66 1007.3
20260905140115 86 267 6.1 8.7 0.00 0.00 0.00 65 1007.6
20260905135611 86 323 4.3 7.8 0.00 0.00 0.00 65 1007.2
20260905135106 86 324 7.8 8.7 0.00 0.00 0.00 64 1007.3
20260905134601 87 280 5.2 8.7 0.00 0.00 0.00 63 1007.2
20260905134059 86 333 5.2 8.7 0.00 0.00 0.00 64 1007.2
20260905133555 86 251 7.8 8.7 0.00 0.00 0.00 63 1007.2
20260905133054 86 247 7.8 9.6 0.00 0.00 0.00 64 1007.1
20260905132554 86 276 3.5 8.7 0.00 0.00 0.00 65 1007.2
20260905132049 87 343 7.8 13.0 0.00 0.00 0.00 63 1007.3